Theta_e
326 326 325 324 323 322 323 323 324 325 326 326 326 326 326 326 326 326 326 326 325 325 325 326 326 326 326 327 330 330 330 330 330 330 330 331 331 331 331 330 328 329 328 328 328 326 325 323 320 320 319 319 320 320 321 321 320 320 320 320 320 321 322
323 324 323 323 323 323 323 323 323 324 325 326 326 326 326 326 326 326 326 326 325 324 324 324 325 326 327 330 332 332 331 331 330 330 330 331 330 330 331 331 329 328 327 327 328 326 325 322 319 320 319 319 319 318 319 319 319 319 319 319 319 319 320
322 323 322 323 324 323 323 323 323 323 325 326 326 326 325 325 326 326 326 326 326 325 325 325 325 326 329 331 332 333 332 332 331 331 331 330 330 330 331 330 329 328 326 326 326 325 323 321 319 319 319 319 318 317 317 317 317 317 317 317 317 317 318
323 323 322 323 324 323 323 323 323 323 324 325 325 325 325 325 326 326 325 325 325 325 325 325 325 326 329 331 331 332 332 331 330 331 331 330 329 329 328 327 326 326 325 324 324 323 321 320 319 319 319 318 317 316 316 315 315 314 314 315 315 316 316
323 323 322 322 322 322 323 322 323 323 324 325 324 324 324 325 326 325 324 324 325 325 325 325 325 326 329 331 330 330 330 330 330 330 330 330 329 327 326 324 323 323 322 320 320 319 318 319 319 318 318 316 316 316 315 314 313 312 313 313 314 314 314
323 322 322 321 321 321 321 322 322 323 323 323 323 323 324 324 325 325 324 324 325 325 325 325 325 325 327 329 330 330 329 329 330 329 329 328 327 324 322 320 320 320 318 317 318 318 317 318 319 317 316 316 315 315 314 313 311 310 310 310 311 312 313
324 323 322 321 320 320 320 321 322 322 323 323 322 323 323 324 324 324 324 324 324 324 324 324 324 323 324 326 328 327 327 327 327 326 325 324 322 320 318 316 315 315 314 313 315 315 316 317 317 317 315 315 315 315 313 313 311 310 308 308 309 311 312
323 323 321 320 321 320 320 321 322 323 322 322 322 322 322 322 322 322 323 323 324 323 323 323 323 322 322 322 323 323 322 322 322 322 321 320 319 317 315 314 313 313 313 312 312 312 314 316 316 316 316 315 314 315 314 313 312 310 308 308 308 309 311
322 322 322 321 322 320 321 322 323 322 321 320 320 321 321 320 319 319 320 321 321 321 321 320 320 320 320 320 320 319 318 318 317 317 317 317 317 316 315 314 314 314 314 313 313 313 314 315 316 316 315 314 314 314 313 313 312 310 310 309 308 308 309
322 322 321 322 322 321 321 322 322 321 320 319 319 320 320 319 318 317 318 319 319 318 317 317 316 317 317 317 317 317 316 316 316 315 315 315 316 316 316 315 315 315 315 315 314 314 315 315 315 315 315 315 314 314 314 314 313 311 310 309 308 308 307
321 321 321 321 322 322 322 321 320 320 319 318 317 317 318 317 316 315 316 316 316 316 315 314 315 315 315 315 314 315 315 315 314 314 314 315 316 317 316 316 316 317 316 316 315 315 315 315 315 316 315 315 315 315 315 315 314 313 312 310 309 308 307
322 322 321 320 320 320 321 321 320 318 317 317 315 315 315 315 314 313 314 314 315 314 314 314 313 314 313 313 312 312 313 313 314 314 314 315 317 318 318 317 317 317 316 317 317 316 316 315 315 316 316 316 317 317 316 316 316 315 313 311 309 308 307
322 322 320 320 319 318 318 319 320 319 317 315 315 315 314 313 313 313 313 313 313 313 313 314 313 312 312 312 312 312 313 313 313 314 314 315 316 317 317 317 317 317 317 316 316 317 317 316 316 316 316 317 317 317 317 317 317 315 313 311 309 308 307
322 321 321 322 321 318 315 313 314 318 318 316 315 315 315 314 313 313 312 311 312 312 313 313 313 313 312 313 313 313 313 312 313 314 314 314 315 315 316 316 316 316 316 316 316 316 316 316 316 316 316 316 316 316 317 317 316 315 314 312 310 308 308
321 321 323 324 322 320 317 311 311 316 318 316 315 314 315 315 314 314 313 313 312 312 313 314 314 314 314 314 314 314 314 313 313 313 314 314 314 315 315 314 314 315 315 315 315 315 314 315 315 315 315 315 315 316 316 316 316 315 314 312 310 309 309
321 320 323 324 323 322 320 318 318 318 318 317 316 314 315 316 315 315 315 315 313 313 314 315 316 315 314 314 315 315 315 314 314 313 313 313 313 314 314 314 313 313 314 314 314 314 314 314 315 314 315 315 315 315 315 315 315 315 314 313 311 310 309
322 321 322 322 322 322 322 322 321 319 317 317 316 316 315 315 316 316 316 316 315 315 315 316 317 316 316 316 315 316 316 316 315 315 314 313 313 313 314 314 314 313 314 315 314 314 313 313 314 314 314 314 314 314 314 315 315 314 314 313 312 311 310
324 324 323 322 321 321 321 321 320 319 318 317 317 317 316 315 315 316 316 316 316 316 315 315 316 317 318 318 318 317 317 317 317 317 317 316 315 315 315 316 316 315 315 316 316 315 314 314 314 314 315 314 314 314 315 315 315 314 314 314 313 312 312
326 325 323 322 322 322 322 320 319 319 319 318 317 318 317 315 315 314 314 314 315 315 315 315 315 316 316 317 318 318 318 319 319 319 319 318 317 317 317 318 317 317 317 317 317 317 316 315 315 316 316 315 314 314 315 316 316 315 315 315 314 313 313
324 324 324 323 324 324 322 320 320 319 319 319 319 318 318 317 316 315 314 314 313 314 316 315 315 316 316 318 319 319 320 320 319 319 319 319 318 318 318 318 319 318 318 318 318 317 317 316 316 316 315 315 315 314 315 315 315 315 316 315 315 314 314
324 323 325 325 324 324 322 320 320 320 319 320 320 320 319 318 317 316 315 314 314 315 316 316 317 318 318 320 321 322 322 321 321 320 320 319 320 320 319 319 319 319 318 318 317 317 317 317 317 316 316 316 315 314 314 314 315 315 315 315 315 314 314
326 325 325 325 324 324 323 322 322 321 321 321 321 320 320 320 319 317 316 316 316 316 317 318 319 319 320 322 323 323 323 323 323 322 322 321 321 320 320 319 319 319 318 317 317 316 317 317 317 316 316 316 316 315 314 314 315 315 315 315 314 313 313
326 326 326 325 324 324 324 324 324 322 321 321 321 321 321 321 320 319 318 318 318 319 320 320 320 319 320 322 322 322 322 322 322 322 322 322 321 320 319 319 319 318 318 317 317 316 316 316 316 316 315 316 316 315 314 314 314 314 314 314 313 312 313
327 326 325 325 324 324 325 325 325 323 322 321 322 322 322 322 321 321 320 320 321 322 322 322 320 319 320 322 321 319 319 319 318 318 319 319 319 319 318 318 318 317 318 320 319 318 317 316 316 316 315 315 314 314 314 314 314 315 314 314 313 313 312
325 325 326 325 324 324 325 325 324 324 323 322 321 322 322 322 322 322 321 321 322 323 323 322 320 317 317 319 319 317 317 316 316 316 316 314 315 316 317 318 318 318 319 321 321 319 318 318 317 317 316 315 314 312 312 312 312 312 313 314 313 313 312
322 323 324 324 324 324 325 324 324 324 324 324 323 322 322 322 322 322 323 322 322 323 323 322 319 315 315 316 316 316 317 317 317 317 316 313 314 316 315 314 316 317 318 319 319 318 318 318 318 317 317 317 315 312 310 310 309 308 309 311 312 312 312
320 321 322 322 323 324 324 324 324 324 324 324 324 323 322 322 322 322 322 322 322 322 323 321 318 314 314 314 315 315 316 318 318 318 317 316 316 316 315 313 313 317 318 318 317 317 318 318 317 316 315 315 314 312 309 308 307 306 305 306 307 310 311
317 318 319 321 322 322 322 323 323 324 324 323 323 324 323 322 322 321 321 322 321 321 321 320 318 316 314 314 315 315 314 316 317 317 317 317 315 315 316 315 315 317 318 316 315 315 317 318 316 313 312 311 310 309 307 306 306 306 306 307 307 309 309
313 315 316 318 319 320 321 322 322 323 323 323 323 323 322 322 321 320 320 320 320 320 320 320 320 318 317 317 316 315 314 315 316 316 317 316 315 315 317 316 315 316 315 312 312 312 313 316 315 312 311 311 309 307 307 306 305 305 305 306 305 305 305
311 312 313 314 316 317 318 320 321 322 322 323 323 323 322 321 320 319 319 319 319 320 320 320 320 319 318 318 316 314 314 315 316 315 315 315 315 316 315 314 315 314 311 309 310 309 310 313 314 313 312 311 309 307 306 305 303 302 302 302 302 301 301
310 311 312 313 313 315 317 317 318 321 322 322 322 322 322 321 320 320 321 320 320 319 319 319 319 319 319 317 314 314 315 315 315 314 314 313 313 312 310 310 313 312 309 308 308 308 309 311 312 312 312 311 309 308 306 303 301 300 301 301 301 301 301
309 309 310 311 312 313 314 315 316 318 321 322 321 321 322 321 319 320 322 321 321 319 318 318 318 318 319 316 313 314 315 314 314 313 312 312 311 308 307 308 310 310 308 306 306 306 308 310 311 311 311 310 309 309 307 305 304 304 304 304 304 303 303
307 308 309 309 310 310 312 314 314 316 318 320 320 320 321 321 321 321 321 321 321 320 319 319 318 318 317 314 312 314 315 314 314 312 311 310 309 308 306 306 307 307 306 306 306 305 306 309 311 311 310 310 309 309 308 307 305 304 304 304 304 304 304
305 306 307 307 308 309 310 311 313 314 316 318 319 320 320 320 320 321 321 321 321 320 319 318 317 316 315 313 312 313 314 313 313 312 310 309 309 308 306 305 305 306 305 305 305 305 305 307 309 310 309 308 307 307 306 305 304 303 302 303 303 303 303
303 304 305 306 307 308 309 309 310 312 314 315 316 318 320 320 320 320 320 320 319 319 318 317 316 315 314 312 312 312 312 312 312 311 309 309 308 307 305 304 304 305 304 304 304 304 304 304 305 305 305 304 304 303 303 303 303 302 302 302 302 302 302
302 302 303 305 306 306 307 308 309 310 312 313 313 315 318 320 320 319 318 318 318 318 317 316 315 315 314 312 310 310 311 311 310 310 309 308 308 307 305 304 304 304 303 303 303 303 302 302 302 301 301 301 300 300 300 301 301 301 301 301 301 301 301
302 302 302 303 304 305 306 306 308 308 310 311 312 313 316 319 319 318 317 316 316 316 315 314 314 314 313 311 308 308 309 309 309 310 309 308 308 306 304 304 304 303 302 302 301 301 300 300 299 299 298 298 297 297 299 301 301 301 301 301 300 300 300
Wind_Speed
6 7 7 6 6 5 5 4 4 5 4 4 4 3 4 3 3 2 1 1 2 3 4 5 6 6 5 6 6 5 5 5 5 4 3 4 5 5 6 8 8 5 5 5 3 2 4 4 5 5 6 7 7 8 7 7 8 8 8 8 9 10 11
7 7 6 6 6 5 5 4 4 5 4 4 4 4 3 3 2 2 2 2 2 2 3 5 5 5 6 6 5 4 4 4 3 3 3 3 4 4 5 6 8 8 8 6 3 3 3 3 5 5 6 7 7 7 7 7 7 8 8 8 8 9 10
7 6 6 6 6 6 5 5 4 5 5 4 4 4 3 3 3 3 3 3 4 3 4 5 6 6 6 7 6 6 5 4 3 3 3 2 2 4 5 5 6 8 9 7 4 5 6 4 5 5 7 7 7 7 6 6 7 7 8 8 8 9 9
6 6 6 6 5 6 6 5 5 5 5 5 5 4 3 4 5 5 5 5 5 5 5 5 5 5 6 7 7 7 7 6 5 4 3 2 3 3 3 4 3 3 4 4 5 7 6 4 4 5 7 7 8 8 5 6 6 7 8 8 9 9 9
7 6 6 6 6 5 5 6 5 5 5 5 5 4 4 5 5 5 5 5 6 6 6 6 6 5 6 6 7 7 7 7 7 6 5 4 4 4 3 4 3 3 2 1 3 4 3 5 5 4 7 7 7 8 7 6 6 7 8 8 9 9 9
8 7 6 5 5 5 5 6 6 6 6 5 5 5 5 5 5 5 5 6 7 7 7 7 7 7 6 6 7 8 7 8 7 7 7 6 6 5 5 4 3 4 3 2 2 1 2 6 5 4 7 7 6 7 7 6 6 7 7 8 8 8 9
8 8 7 6 5 5 6 6 6 7 7 6 5 5 5 5 5 6 6 6 7 8 8 8 8 8 8 8 9 9 9 9 9 9 8 8 7 6 5 4 4 5 4 3 2 2 3 5 4 4 6 5 4 5 7 7 6 7 7 7 7 7 7
8 8 7 6 5 5 6 6 7 7 7 7 6 6 6 6 6 6 6 7 7 8 8 8 8 8 8 9 9 9 10 9 10 10 9 8 8 7 6 6 6 6 5 4 3 2 3 4 3 4 5 4 3 3 5 6 6 6 6 6 6 6 6
9 8 8 7 6 6 7 6 7 7 8 7 6 6 6 6 7 7 7 8 7 8 8 8 8 8 8 8 8 9 9 9 9 9 9 9 9 8 7 6 6 7 6 5 4 3 3 3 4 5 4 4 4 3 3 3 5 5 4 4 6 6 5
11 10 9 9 8 8 7 7 8 8 8 8 7 7 7 7 7 8 8 8 8 8 8 8 8 8 8 8 8 9 9 9 10 9 9 9 9 8 8 7 7 7 7 6 6 5 4 4 6 4 3 4 2 3 4 2 3 4 3 4 5 5 4
12 11 11 10 9 8 8 8 9 9 9 9 9 8 8 7 8 8 9 9 8 8 8 8 8 8 8 8 8 9 9 9 10 10 9 9 9 8 8 8 8 8 8 7 7 6 5 5 5 2 1 1 2 2 3 4 3 3 3 3 4 5 4
13 12 12 11 9 9 9 10 9 9 10 10 9 9 9 8 8 8 9 9 8 8 8 8 8 8 8 8 8 9 9 9 9 10 9 9 8 8 8 8 8 8 8 7 7 7 5 4 4 2 3 3 5 6 4 3 3 3 3 3 4 4 3
13 13 13 12 10 9 10 11 11 10 10 10 9 10 9 8 8 8 8 9 9 9 8 8 8 9 9 9 9 9 9 9 10 10 9 9 8 8 8 8 8 7 6 6 7 6 5 4 4 4 5 4 4 5 3 2 3 4 4 3 2 2 2
13 13 13 12 11 10 10 13 14 10 9 10 10 10 9 9 9 8 9 9 9 9 9 9 9 9 9 9 9 9 9 9 10 9 9 9 8 7 7 7 7 6 4 5 5 4 4 4 3 4 3 3 3 3 1 2 4 5 3 1 1 1 1
14 14 14 12 12 12 11 13 14 11 9 10 10 10 10 9 9 9 9 9 9 9 9 9 8 9 9 10 9 8 8 8 9 9 8 8 7 6 6 6 6 4 3 3 3 2 4 4 3 3 2 1 3 2 1 1 3 4 3 1 1 1 0
13 14 13 12 11 12 12 12 12 11 10 10 9 9 10 10 10 10 10 10 10 10 10 9 8 9 9 10 9 8 7 8 8 8 7 7 7 6 5 5 5 3 2 3 2 1 3 3 4 2 3 1 2 2 3 3 1 2 3 2 2 3 2
13 13 12 12 11 12 12 12 12 11 11 10 9 9 10 10 10 10 10 10 10 10 10 9 9 9 9 9 9 8 8 8 8 7 7 6 7 7 6 5 5 4 3 3 3 1 3 4 3 2 3 2 2 2 2 1 1 1 2 2 1 2 0
11 11 12 12 12 13 13 12 11 11 10 11 10 9 10 11 11 11 10 10 11 10 10 10 9 9 9 8 8 8 8 8 7 7 6 6 6 6 6 5 5 5 5 4 4 3 3 4 3 2 4 4 4 5 3 2 2 1 2 3 2 3 4
10 11 12 11 11 12 13 13 12 12 11 11 11 10 11 11 11 12 12 11 12 12 11 11 11 10 10 9 8 8 8 8 8 7 6 6 6 6 6 6 6 6 6 6 5 4 3 4 4 3 3 5 3 5 5 3 3 3 4 4 3 4 5
11 12 12 10 10 11 12 13 13 12 11 11 11 11 12 12 12 12 13 13 13 13 13 13 12 12 12 11 10 9 8 8 7 7 7 6 7 7 7 7 8 8 8 7 7 6 5 5 5 4 4 5 4 2 4 5 5 4 4 4 5 5 6
11 11 10 9 9 10 11 12 12 12 12 12 12 12 12 13 13 13 13 14 14 14 14 14 14 14 13 12 11 10 9 8 7 7 7 6 6 7 7 7 8 8 9 9 9 8 8 7 7 7 6 6 6 4 4 5 6 6 7 6 6 7 8
8 9 9 9 9 9 9 10 11 12 12 12 13 13 13 13 13 14 14 14 14 15 15 15 15 15 15 14 12 10 8 8 7 6 6 4 4 5 7 7 8 9 10 11 11 11 10 9 9 9 7 6 7 8 7 6 7 8 8 8 9 9 9
6 7 8 9 9 8 9 9 9 10 12 13 13 14 13 13 14 14 14 15 15 15 15 15 17 17 17 16 14 12 10 7 5 3 2 0 2 4 7 8 9 10 12 13 13 14 14 13 12 12 11 8 7 8 8 8 9 11 10 11 11 10 9
5 7 7 8 9 9 10 9 9 11 11 12 13 13 14 14 14 15 15 16 16 16 16 17 21 22 21 20 18 17 15 10 5 2 2 1 2 4 6 8 8 9 11 11 11 12 12 13 13 15 17 15 12 10 10 9 10 10 11 13 12 10 10
3 5 6 8 9 10 11 11 11 12 12 12 12 13 14 14 14 15 16 17 18 18 17 20 25 25 24 23 21 19 17 14 10 9 7 6 6 6 6 6 5 6 9 9 8 7 8 9 10 13 16 17 16 15 15 14 11 7 7 8 9 9 10
2 2 4 6 7 9 10 12 12 13 13 13 13 14 15 16 16 16 17 18 19 19 19 22 25 25 24 23 21 18 15 13 14 13 13 14 12 8 8 9 7 6 8 8 7 6 7 9 8 9 12 15 18 20 20 19 17 13 8 5 5 6 7
4 3 3 4 5 7 9 10 11 12 13 14 15 17 17 17 18 18 18 19 20 20 20 21 23 25 25 22 20 19 16 12 12 12 13 14 12 9 9 11 11 8 6 5 6 6 6 7 7 7 8 11 14 17 18 16 15 15 13 8 6 5 4
6 5 5 4 5 6 7 9 10 11 12 13 15 17 19 21 21 21 21 22 22 22 21 21 22 24 24 20 20 22 20 15 13 13 12 12 12 11 9 9 9 7 5 5 7 7 6 5 5 4 5 7 8 9 11 11 10 8 7 5 5 3 1
6 6 6 6 6 7 8 9 10 10 11 12 13 15 18 21 22 23 24 25 24 23 21 19 21 23 23 21 21 23 21 18 17 15 13 11 11 10 8 7 7 6 5 5 5 6 8 7 5 4 7 8 7 8 11 11 11 10 9 7 7 6 6
7 7 7 7 7 8 8 9 10 10 11 12 14 15 17 18 20 22 23 24 24 23 20 17 19 24 24 22 22 23 21 19 18 17 15 13 11 11 11 9 8 6 5 5 3 5 8 8 6 6 8 8 6 7 9 11 10 10 10 9 9 9 10
9 9 8 8 8 9 9 10 10 11 11 13 14 15 16 17 19 19 19 21 21 20 20 18 18 22 25 23 24 25 22 20 19 18 17 14 12 12 14 12 10 7 6 6 5 7 9 9 6 6 8 8 7 7 6 7 8 8 7 8 8 9 9
9 9 9 10 10 10 11 11 11 12 12 13 14 15 16 18 19 19 17 18 19 18 18 19 19 21 24 25 27 27 22 21 21 19 18 16 13 12 13 13 12 9 8 7 8 9 11 8 5 6 7 7 7 7 7 6 5 3 3 4 5 6 8
10 10 11 11 11 12 12 12 12 12 13 14 15 15 17 17 18 18 16 16 18 18 19 22 23 24 25 26 28 25 21 22 23 20 18 16 14 13 13 13 12 10 9 9 9 9 10 8 5 5 5 4 3 5 8 7 5 3 2 3 4 6 7
12 12 12 13 13 13 13 13 13 13 13 14 15 16 17 18 18 18 17 16 16 16 18 22 24 25 26 29 30 25 18 17 20 20 18 17 16 15 13 13 14 12 10 10 9 9 10 9 7 6 4 2 5 8 7 3 3 3 4 5 6 7 8
14 14 14 14 14 14 14 14 14 15 14 14 16 16 17 17 17 16 15 14 16 17 17 21 23 24 27 29 30 27 18 12 12 15 16 16 16 16 15 15 16 15 12 12 11 9 9 9 8 7 5 3 4 4 2 1 2 3 5 5 6 7 8
16 16 15 15 15 16 16 16 15 16 16 15 17 17 17 16 15 12 9 8 10 12 14 17 20 22 26 26 25 24 17 10 10 15 16 16 17 18 17 17 18 16 14 12 11 9 9 8 7 6 4 4 3 3 2 2 3 4 5 6 7 8 8
16 17 16 17 17 17 17 17 17 18 18 17 18 18 17 16 14 12 10 9 8 8 11 13 15 20 25 25 25 24 13 6 11 18 16 15 18 18 18 19 18 17 14 12 10 9 7 6 5 3 2 2 1 1 1 2 3 4 4 6 7 7 8
Wind_Direction
115 117 119 114 110 109 114 122 121 124 124 120 129 131 126 131 134 144 154 183 180 175 169 161 170 186 188 189 191 189 193 194 199 218 203 187 195 190 186 181 174 186 199 197 200 175 164 142 128 108 81 75 69 65 65 68 73 69 63 65 69 70 69
121 126 126 118 115 119 123 124 122 121 117 114 122 122 120 120 115 111 108 108 108 125 142 134 138 152 154 159 162 158 168 171 168 180 180 194 211 183 178 186 173 167 182 196 208 240 228 155 134 123 110 102 86 76 74 78 80 78 71 66 68 72 72
133 136 129 124 125 129 132 130 131 131 128 126 120 116 106 92 95 98 93 96 88 76 83 102 120 130 135 139 138 135 135 140 146 149 163 190 208 189 181 188 181 164 171 186 184 210 220 158 126 136 136 126 104 91 86 94 95 89 82 72 68 69 71
141 144 137 139 143 142 142 143 146 144 137 136 127 115 98 87 90 95 97 95 84 79 80 89 110 124 129 130 129 129 126 124 127 132 141 134 145 178 179 165 164 138 154 171 164 190 204 139 125 143 136 125 117 111 99 92 89 86 84 79 76 72 69
146 151 149 151 152 151 152 151 149 143 139 139 131 117 106 105 106 103 100 94 83 80 84 86 93 106 120 127 131 132 127 125 126 130 136 123 119 125 95 94 102 104 121 127 150 188 184 132 147 154 134 131 125 117 112 106 92 81 74 70 73 71 71
150 151 150 151 152 153 153 153 150 146 144 138 128 120 116 117 117 111 100 89 86 82 81 84 82 85 100 111 119 121 118 118 119 120 120 106 95 99 94 93 105 110 103 78 116 147 104 132 160 157 130 127 125 125 133 133 110 90 73 62 65 64 64
149 148 150 151 152 150 150 155 152 145 141 134 126 121 121 120 111 106 100 91 90 89 85 84 79 79 89 93 95 100 97 96 99 100 100 98 93 93 92 85 81 83 77 71 85 103 121 145 164 149 122 118 140 152 146 135 111 91 78 64 60 65 65
144 144 145 145 149 149 148 152 147 139 135 130 126 119 114 113 108 108 107 100 97 96 93 90 86 85 94 98 92 92 93 91 94 98 94 92 90 85 81 81 87 85 81 94 110 123 146 155 148 131 123 134 166 153 126 114 97 86 87 78 65 68 75
143 141 140 141 145 144 144 148 142 134 129 123 122 121 117 115 114 114 111 107 103 100 95 91 91 93 99 105 99 92 95 96 95 97 94 90 85 82 81 83 91 86 75 81 80 71 91 118 124 127 139 159 158 125 111 102 95 87 78 84 81 76 73
144 143 142 142 143 142 142 143 138 134 130 127 126 123 120 117 114 114 112 108 105 100 96 94 97 101 101 104 102 96 94 93 92 90 90 91 87 85 86 84 90 88 78 78 77 74 74 95 123 142 168 174 169 150 152 131 106 103 65 53 72 87 85
146 145 144 145 146 146 141 137 139 140 135 132 131 128 125 121 116 115 113 111 108 103 101 102 103 105 103 101 99 95 93 93 93 91 90 91 90 89 87 84 86 83 78 80 83 88 86 94 125 157 179 149 331 334 143 133 109 97 78 57 49 66 86
147 146 148 150 152 152 148 141 141 142 139 136 135 134 134 132 128 123 119 117 115 110 107 107 106 105 104 103 100 97 97 99 99 98 98 97 96 94 88 85 87 85 86 91 90 94 99 99 120 108 72 65 12 19 75 124 119 81 64 76 64 53 69
150 149 152 157 158 159 159 153 149 147 143 144 145 142 142 143 139 134 129 125 121 118 115 112 110 109 108 109 109 107 107 108 108 108 109 109 108 107 101 94 93 91 92 99 95 95 95 85 87 86 81 78 52 44 53 85 111 98 74 76 92 81 80
154 153 157 162 161 162 165 158 155 154 148 151 157 152 149 151 149 145 140 135 130 126 123 119 118 117 115 114 113 114 117 119 117 116 117 119 118 115 112 107 104 98 90 106 118 122 116 106 97 91 90 98 89 64 51 93 106 109 100 87 135 114 77
162 160 160 161 161 164 169 165 162 160 154 161 168 159 153 156 156 153 148 143 140 136 131 129 126 124 122 120 119 121 124 125 121 120 125 127 125 122 121 121 121 115 99 122 169 172 137 161 188 154 145 122 101 81 11 97 129 132 132 150 212 182 90
176 172 166 166 169 171 172 175 179 174 165 168 172 163 159 162 162 161 157 152 150 146 142 138 134 133 133 132 131 130 127 126 126 129 135 139 138 135 135 139 138 138 137 158 225 243 136 214 253 144 128 84 88 78 19 4 342 121 129 156 231 215 172
190 185 185 189 192 190 184 183 185 179 171 171 171 166 165 168 170 168 164 161 157 154 152 149 145 143 142 142 142 139 136 136 138 143 150 154 151 147 152 161 156 158 169 179 213 223 173 228 279 94 136 169 162 133 51 350 306 79 136 169 261 283 106
197 200 207 208 205 202 199 199 196 188 182 179 175 174 174 176 176 174 173 171 167 165 162 160 157 155 152 152 150 150 151 152 153 158 162 163 162 160 167 179 177 175 183 188 200 205 190 215 246 189 182 202 183 159 165 243 260 276 258 244 260 309 318
207 213 215 214 209 205 206 210 205 196 192 187 183 183 184 184 185 184 184 182 179 177 173 171 171 167 165 164 163 165 165 165 169 173 176 178 181 184 188 195 196 193 197 202 206 208 197 210 242 233 222 255 240 156 162 230 248 248 270 276 269 276 290
207 212 212 212 211 206 206 209 205 201 200 196 193 194 193 193 194 193 192 191 190 187 182 181 180 176 176 175 174 175 173 175 180 182 185 192 198 202 205 211 215 214 215 218 218 221 219 219 240 252 246 271 287 175 179 236 248 242 256 272 275 276 284
197 207 208 210 212 207 206 208 210 211 211 206 203 204 203 201 200 201 200 196 194 191 187 185 182 180 180 177 175 178 177 179 187 192 197 206 214 217 223 229 230 230 231 232 229 227 228 223 228 242 245 248 260 254 238 248 257 259 260 265 272 273 279
197 205 208 213 214 211 211 214 217 220 220 217 215 216 215 210 206 207 205 201 197 193 189 188 186 185 186 181 175 171 167 173 185 192 198 213 224 233 250 254 250 253 248 240 234 229 230 231 228 235 247 246 243 245 244 245 255 263 262 261 265 268 274
202 207 211 216 217 218 223 226 226 227 227 226 223 223 223 218 214 213 210 206 200 194 190 191 190 187 185 180 170 159 149 143 141 147 152 232 220 227 258 263 260 266 261 250 247 243 240 242 239 237 244 249 243 237 237 243 256 263 264 266 272 274 273
204 208 212 218 223 228 231 232 234 235 234 232 228 226 225 221 218 216 214 210 202 195 195 197 195 191 187 184 178 172 164 149 131 123 97 33 272 243 261 266 256 257 257 252 253 251 245 244 240 237 239 242 239 229 225 238 253 259 263 270 279 281 274
212 213 213 218 224 231 235 237 238 238 234 231 230 227 224 221 218 217 217 216 209 203 205 210 208 202 197 197 196 194 190 190 207 223 221 235 251 246 253 262 245 235 239 236 237 249 258 254 243 237 237 236 233 226 222 229 242 259 281 284 284 285 288
283 242 226 226 225 229 237 238 239 239 235 234 234 229 223 222 222 220 220 220 217 213 213 218 220 213 207 207 208 208 206 206 211 220 231 237 234 226 238 252 252 238 232 233 236 241 249 252 245 240 237 234 233 230 228 230 236 245 264 291 304 305 314
326 299 270 250 235 236 244 245 243 240 238 238 237 233 230 229 228 226 224 224 223 220 217 220 223 219 213 213 218 219 217 214 213 220 228 227 220 218 231 239 241 234 215 213 220 212 215 231 239 245 238 230 232 234 233 235 239 244 252 262 282 310 340
344 325 304 284 264 256 256 258 255 248 244 242 239 237 236 234 233 233 232 229 227 226 225 224 224 220 217 221 228 228 223 221 222 222 218 211 210 214 217 217 221 217 198 206 217 208 197 201 216 229 211 198 207 215 214 215 215 214 215 219 227 238 229
344 333 318 302 284 271 264 264 262 255 251 248 244 243 241 238 236 237 237 234 230 230 231 227 221 221 224 230 233 228 221 218 217 214 209 201 193 190 190 193 195 187 188 218 225 205 190 181 181 184 169 159 162 181 195 202 203 201 200 205 217 229 244
335 329 321 310 298 288 279 272 264 256 250 248 248 247 244 242 242 241 239 237 235 236 239 236 226 224 228 229 224 216 209 207 210 207 200 189 175 171 174 172 162 159 183 203 199 179 177 172 167 168 163 159 159 173 199 213 213 213 223 236 247 258 266
325 324 319 315 314 310 298 285 275 263 251 247 250 249 247 248 248 245 242 239 241 244 244 242 237 234 232 225 212 203 196 193 196 195 187 177 165 171 179 168 151 155 180 179 163 157 155 154 165 175 167 169 173 167 180 207 218 228 245 259 270 277 280
313 313 313 316 318 313 304 294 284 273 259 252 252 250 250 251 249 248 245 242 246 249 239 233 233 231 228 218 202 195 192 189 188 185 179 170 152 156 173 171 163 169 174 161 153 153 151 152 176 190 184 194 204 188 167 166 182 218 254 276 290 299 305
303 304 304 306 307 306 304 298 289 281 270 261 255 252 252 253 251 250 246 241 246 246 234 230 227 219 215 207 194 190 194 191 187 183 177 167 150 145 159 170 173 175 170 163 159 159 162 163 159 169 188 214 194 147 142 156 179 204 260 275 277 287 291
299 298 296 295 293 292 292 292 291 286 278 269 264 259 256 255 254 254 250 243 240 234 224 227 226 216 209 202 190 189 199 196 187 184 175 164 154 147 148 161 172 173 168 168 168 167 175 180 173 171 184 173 134 129 127 150 220 260 280 271 267 273 275
292 290 288 286 284 282 280 282 282 279 276 272 269 266 262 257 255 255 253 245 240 234 227 228 227 215 206 200 192 189 193 189 185 184 176 166 157 149 149 162 171 171 169 171 172 174 181 189 194 198 202 193 186 191 200 270 278 280 280 276 278 283 286
287 282 279 277 276 276 276 275 274 272 271 267 263 261 260 254 247 244 242 233 232 228 220 223 225 213 203 201 196 189 185 181 190 194 187 172 155 147 156 171 172 170 172 174 176 178 182 190 198 202 204 215 238 269 294 286 271 277 283 288 292 290 289
288 282 279 275 273 271 270 269 268 267 266 264 260 257 254 248 237 227 225 223 218 200 189 203 218 208 197 193 187 185 191 209 204 199 191 168 150 150 166 175 172 171 175 173 173 175 175 181 190 190 204 239 275 348 329 266 267 278 286 286 287 290 293